DECAYED

CZ-6A DEB, 61457 (Decayed)

Orbit data source: Space-Track

CZ-6A DEB, 61457 was space debris in LEO originally from a launch on Tue, 06 Aug 2024 UTC launched from the Taiyaun Space Center, China (TSC). Debris objects in space refer to the collection of defunct objects orbiting the Earth. Examples of debris include non-operational satellites, rocket bodies, and fragments generated from explosions, collisions, or faulty payload assembly.

Not visible in the next 10 days
Identifier
61457, 2024-140ZP
Orbit
Decayed
Country
Flag of CNCN / PRC
Related business
Manufacturer
SAST
Mission
Decayed spacecraft
Bus & Motor
Unknown
Mass
Unknown
Launch date (UTC)
2024-08-06 (2 years ago)
Launch vehicle
Unknown
Launch site
Taiyaun Space Center, China (TSC)
Object type
Payload
Rocket body
Debris
Shape & HBR
Unknown shape, 0.1 m
Radar Cross Section
Medium (>0.1 m² and <1 m²)

Expand to show TLE details & history
Last TLE update: 10 months ago

TLE from 10 months ago
0 CZ-6A DEB
1 61457U 24140ZP  25232.01681997  .22758006 -20010-5  76274-2 0  9996
2 61457  89.2291 317.1830 0014763 303.3343  56.6546 16.25507454 53558
Epoch: 2025-08-20T00:24Z
TLE epoch observation values (Epoch: 2025-08-20T00:24:13.245Z)
Latitude
0.00004°
Longitude
-17.47288°
Altitude
202.65 km
Speed
7.788 km/s
True Right ascension
21h 08m 43s
True Declination
0° 00' 00"
Sunlit
Object was in full shadow at epoch
Visualization orbit readout
Latitude
Unknown
Longitude
Unknown
Altitude
Unknown
Speed
Unknown
Apparent Right ascension
Unknown
Apparent Declination
Unknown
Sunlit
N/A
Visualization observer readout
Local Sidereal Time
07:22:04
Azimuth
Unknown
Elevation
Unknown
Doppler factor
Unknown
Orbital elements
Apogee altitude
211.016 km
Perigee altitude
191.59 km
Semi-major axis
6,579.44 km
Eccentricity
0.00148
Inclination
89.2291°
RAAN
317.183°
Arg. of periapsis
303.3343°
True anomaly
56.79606°
Mean anomaly
56.6546°
Eccentric anomaly
56.72532°
Mean motion
4.06687 °/min
Orbital period
88.52 mins
BSTAR
0.0076274
Loading maneuver chart data...
Computing Atmospheric mass density...
Loading historical data...
Loading historical data...
Loading historical data...
Loading historical data...
Loading historical data...
Loading historical data...
Loading historical data...

Documentation

Showing up to 5 results
|